Location: Eekst
(53.0191°N, 6.7366°E)
Time: 14:47:04
(UTC+00:00)

Okean 1 - Pass Details

Date: 15 May 2026
Orbit: 458 x 474 km, 82.5° (Epoch: 10 June)

Event Time Altitude Azimuth Distance (km) Brightness Sun altitude
Exits shadow 21:26:32 19° 181° (S) 1,171 4.5 -13.2°
Maximum altitude 21:28:58 73° 99° (E) 502 3.0 -13.4°
Drops below altitude 10° 21:32:34 10° 14° (NNE) 1,657 6.5 -13.6°
Sets 21:34:41 0° 13° (NNE) 2,542 7.5 -13.8°
